Regional Weather Roundup
Issued by NWS State College, PA

Home | Current Version | Previous Version | Graphics & Text | Print | Product List | Glossary On
Versions: 1 2 3 4 5 6 7 8 9 10 11 12 13 14 15 16 17 18 19 20 21 22 23 24 25 26 27 28 29 30 31 32 33 34 35 36 37 38 39 40 41 42 43 44 45 46 47 48 49 50
000
ASUS41 KCTP 291003
RWRCTP

REGIONAL WEATHER ROUNDUP
NATIONAL WEATHER SERVICE STATE COLLEGE PA
600 AM EDT WED JUL 29 2015

Note: "fair" indicates few or no clouds below 12,000 feet with no
significant weather and/or obstructions to visibility.

* = STATION THAT DOES NOT REPORT PRECIPITATION /E.G. RAIN...SNOW...ETC/
    THUNDER OR FOG.

PAZ002>004-007>009-013>016-020>023-029>032-291100-
WESTERN PENNSYLVANIA

CITY           SKY/WX    TMP DP  RH WIND       PRES   REMARKS
ERIE           CLEAR     70  59  68 S8        29.97S
MEADVILLE      CLEAR     69  59  70 E3        30.02S
FRANKLIN*      CLOUDY    61  57  88 NE3       30.04S VSB 1/2
NEW CASTLE     FAIR      65  65 100 CALM      30.01R
BEAVER COUNTY  NOT AVBL
BUTLER*        CLEAR     66  61  82 NE6       30.02R
PITTSBURGH INT PTCLDY    72  66  81 CALM      29.99S
PITTSBURGH     CLEAR     71  64  78 SE3       29.98F
INDIANA*       CLEAR     66  63  88 E7        30.05S
LATROBE        NOT AVBL
WASHINGTON CO* NOT AVBL
$$

PAZ004>006-010>012-017>019-024>028-033>037-041-042-045-046-049>053-291100-
CENTRAL PENNSYLVANIA

CITY           SKY/WX    TMP DP  RH WIND       PRES   REMARKS
BRADFORD       CLEAR     56  53  90 CALM      30.07F
DUBOIS         CLEAR     63  58  83 E7        30.04F HAZE
CLEARFIELD     PTCLDY    59  57  93 CALM      30.05F FOG
JOHNSTOWN      CLEAR     68  64  87 E3        30.06F FOG
ALTOONA        CLEAR     63  60  90 CALM      30.04F FOG
STATE COLLEGE    N/A     63  63 100 CALM      30.04S FOG
WILLIAMSPORT   PTCLDY    65  62  90 CALM      30.02R
SELINSGROVE    MOCLDY    64  62  93 CALM      30.03R FOG
FT INDIANTOWN  CLEAR     65  65  99 CALM      30.00S FOG
CAPITAL CITY   CLEAR     69  66  90 CALM      29.99S FOG
HARRISBURG     MOCLDY    71  67  87 N5        29.98F
YORK           FOG       66  65  96 CALM      30.00S VSB 1/4
$$

PAZ038>040-043-044-047-048-054-055-060>062-067>071-291100-
EASTERN PENNSYLVANIA

CITY           SKY/WX    TMP DP  RH WIND       PRES   REMARKS
SCRANTON       CLEAR     66  61  84 E5        30.04R
MOUNT POCONO   CLEAR     60  58  92 CALM      30.07R
ALLENTOWN      CLEAR     68  65  90 CALM      30.00R
QUAKERTOWN*    SUNNY     64  64 100 CALM      30.01R
READING        CLEAR     69  66  90 CALM      29.98S
LANCASTER      CLEAR     68  66  93 CALM      29.99S FOG
COATESVILLE    SUNNY     73  72  94 CALM      30.01S
POTTSTOWN      CLEAR     67  67 100 CALM      30.01R FOG
BLUE BELL        N/A     68  68 100 CALM      29.98S VSB 3/4
DOYLESTOWN     CLEAR     69  67  93 CALM      29.99R
WILLOW GROVE   NOT AVBL
NORTH PHILA    CLEAR     74  67  78 CALM      29.99R
PHILADELPHIA   PTCLDY    76  71  85 CALM      29.98R
$$



USA.gov is the U.S. government's official web portal to all federal, state and local government web resources and services.